Location: Croagnes
(43.9363°N, 5.3265°E)
Time: 08:54:08
(UTC+00:00)

S3M - Pass Details

Date: 06 June 2020
Orbit: 950 x 1003 km, 83.0° (Epoch: 14 July)

Event Time Altitude Azimuth Distance (km) Brightness Sun altitude
Rises 22:10:39 0° 349° (N) 3,656 8.5 -20.4°
Reaches altitude 10° 22:13:09 10° 348° (NNW) 2,712 7.5 -20.5°
Maximum altitude 22:19:19 70° 266° (W) 1,035 4.1 -20.9°
Enters shadow 22:22:10 34° 192° (SSW) 1,559 4.6 -21.1°
